Waarnemingen

Advertentie
Mijn weer
Madridejos, Spanje (8273): temperatuur & dauwpunt: 16.11.2019 12:00:00 - 22.11.2019 12:00:00 (CET)Madridejos, Spanje (8273): windsnelheid & windstoten: 16.11.2019 12:00:00 - 22.11.2019 12:00:00 (CET)Madridejos, Spanje (8273): windrichting: 16.11.2019 12:00:00 - 22.11.2019 12:00:00 (CET)Madridejos, Spanje (8273): luchtdruk: 16.11.2019 12:00:00 - 22.11.2019 12:00:00 (CET)Madridejos, Spanje (8273): zicht: 16.11.2019 12:00:00 - 22.11.2019 12:00:00 (CET)Madridejos, Spanje (8273): Zonneschijnduur: 16.11.2019 12:00:00 - 22.11.2019 12:00:00 (CET)Madridejos, Spanje (8273): neerslag: 16.11.2019 12:00:00 - 22.11.2019 12:00:00 (CET)
Datum & Tijd tt [°C] td [°C] ff [km/u] ff [kn] fx [km/u] fx [kn] dd ppp [hPa] vv [km] sd [min] rr [mm]
22.11.2019 12:00:00 - - - - - - - - - - -
22.11.2019 11:00:00 10,0 7,6 12 7 33 18 Z 1000,9 20 7 0,2
22.11.2019 10:00:00 9,3 7,1 16 8 33 18 ZZW 1002,0 20 0 0,0
22.11.2019 09:00:00 8,4 7,0 9 5 32 18 ZZO 1003,0 10 0 0,0
22.11.2019 08:00:00 7,9 6,8 7 4 24 13 ZZO 1003,3 16 0 0,0
22.11.2019 07:00:00 7,6 6,5 9 5 28 15 ZZO 1004,4 12 0 -
22.11.2019 06:00:00 7,6 6,4 9 5 26 14 ZZO 1004,8 4,4 0 0,0
22.11.2019 05:00:00 7,4 6,2 7 4 25 13 ZZO 1005,6 4,6 0 0,0
22.11.2019 04:00:00 6,7 5,5 6 3 22 12 Z 1006,4 20 0 0,0
22.11.2019 03:00:00 6,3 5,0 6 3 20 11 ZZO 1006,9 0,7 0 0,0
22.11.2019 02:00:00 6,6 5,3 8 4 21 12 ZZO 1007,3 0,6 0 0,0
22.11.2019 01:00:00 6,5 5,0 5 3 24 13 ZO 1008,0 15 0 -
22.11.2019 00:00:00 5,9 4,5 2 1 16 9 Z 1008,6 20 0 0,0
21.11.2019 23:00:00 5,3 3,4 4 2 19 10 ZZO 1009,3 19 0 0,0
21.11.2019 22:00:00 6,5 4,5 5 3 23 12 ZZW 1008,8 20 0 0,0
21.11.2019 21:00:00 7,2 5,0 6 3 22 12 ZZW 1008,3 20 0 0,0
21.11.2019 20:00:00 7,5 5,1 7 4 22 12 ZW 1008,2 20 0 0,0
21.11.2019 19:00:00 8,6 5,8 5 3 14 7 WZW 1007,6 20 0 -
21.11.2019 18:00:00 9,5 6,4 4 2 28 15 WZW 1007,1 20 0 0,0
21.11.2019 17:00:00 9,9 6,2 8 5 26 14 W 1007,1 20 0 0,0
21.11.2019 16:00:00 9,7 6,2 9 5 21 12 WNW 1006,9 20 0 0,0
21.11.2019 15:00:00 9,6 7,1 5 3 23 13 WZW 1007,1 20 0 0,4
21.11.2019 14:00:00 9,5 6,7 9 5 28 15 ZZW 1007,7 16 0 0,4
21.11.2019 13:00:00 9,5 6,4 10 5 27 15 ZZW 1008,4 20 0 -
21.11.2019 12:00:00 9,1 6,2 9 5 26 14 Z 1009,0 20 0 0,0
21.11.2019 11:00:00 8,1 6,4 6 4 24 13 ZZO 1009,2 15 0 0,0
21.11.2019 10:00:00 7,3 5,3 6 4 22 12 ZO 1009,5 13 0 0,0
21.11.2019 09:00:00 7,0 5,1 12 6 23 13 ZZW 1009,1 20 0 0,0
21.11.2019 08:00:00 6,8 5,0 6 4 23 12 Z 1008,9 20 0 0,2
21.11.2019 07:00:00 6,8 4,8 10 6 28 15 ZZW 1008,6 20 0 -
21.11.2019 06:00:00 6,6 4,6 11 6 23 12 ZW 1008,6 20 0 0,0
21.11.2019 05:00:00 6,5 4,5 12 7 22 12 ZW 1009,0 20 0 0,0
21.11.2019 04:00:00 6,9 5,0 11 6 22 12 ZZW 1009,2 20 0 0,0
21.11.2019 03:00:00 6,5 4,5 7 4 21 12 OZO 1009,2 18 0 0,0
21.11.2019 02:00:00 6,6 4,6 10 5 23 12 ZZW 1009,4 20 0 0,0
21.11.2019 01:00:00 6,5 4,5 12 7 22 12 ZW 1009,6 20 0 -
21.11.2019 00:00:00 6,2 4,3 12 6 23 12 Z 1009,7 20 0 0,0
20.11.2019 23:00:00 6,7 4,6 11 6 23 12 ZZW 1009,5 20 0 0,0
20.11.2019 22:00:00 6,4 4,6 9 5 24 13 ZZO 1009,4 15 0 0,0
20.11.2019 21:00:00 6,3 4,5 11 6 23 13 Z 1009,4 20 0 0,0
20.11.2019 20:00:00 6,4 4,6 9 5 22 12 Z 1009,2 15 0 0,2
20.11.2019 19:00:00 6,5 4,3 8 4 25 13 ZZO 1009,1 7 0 -
20.11.2019 18:00:00 6,8 3,6 13 7 26 14 Z 1009,2 9 0 0,2
20.11.2019 17:00:00 6,9 3,8 8 5 22 12 ZW 1009,3 20 0 0,2
20.11.2019 16:00:00 7,2 2,9 9 5 25 14 ZW 1009,5 20 0 0,2
20.11.2019 15:00:00 8,0 1,5 15 8 29 16 ZZW 1009,5 20 0 0,0
20.11.2019 14:00:00 9,1 2,5 13 7 32 17 WZW 1009,7 20 0 0,0
20.11.2019 13:00:00 9,8 3,0 13 7 26 14 ZW 1010,3 20 6 -
20.11.2019 12:00:00 9,3 3,8 9 5 23 12 ZZW 1011,1 20 50 0,0
20.11.2019 11:00:00 6,3 3,8 8 5 19 10 ZZO 1012,2 10 57 0,0
20.11.2019 10:00:00 3,7 1,9 6 3 14 8 ZO 1013,4 16 9 0,0
20.11.2019 09:00:00 2,9 1,1 4 2 14 8 ZZO 1013,3 15 4 0,0
20.11.2019 08:00:00 2,6 0,6 5 3 13 7 OZO 1013,3 14 0 0,0
20.11.2019 07:00:00 2,8 0,6 4 2 17 9 ZO 1013,5 20 0 -
20.11.2019 06:00:00 3,3 0,6 5 3 17 9 ZZO 1013,8 20 0 0,0
20.11.2019 05:00:00 3,5 0,6 6 4 17 9 Z 1014,0 20 0 0,0
20.11.2019 04:00:00 3,3 0,6 7 4 20 11 ZZW 1014,7 20 0 0,0
20.11.2019 03:00:00 4,1 1,1 8 4 20 11 Z 1014,8 20 0 0,0
20.11.2019 02:00:00 4,2 1,5 9 5 19 11 ZZW 1014,9 20 0 0,0
20.11.2019 01:00:00 4,4 1,5 8 4 19 11 ZO 1015,4 20 0 -
20.11.2019 00:00:00 4,7 1,5 6 4 20 11 W 1015,8 20 0 0,0
19.11.2019 23:00:00 5,4 2,1 8 4 21 11 WZW 1016,1 20 0 0,0
19.11.2019 22:00:00 5,8 2,1 10 5 16 9 WZW 1016,1 20 0 0,0
19.11.2019 21:00:00 5,7 1,9 10 5 20 11 WZW 1016,2 20 0 0,0
19.11.2019 20:00:00 6,1 2,1 5 3 20 11 WNW 1016,2 20 0 0,0
19.11.2019 19:00:00 7,0 2,1 8 4 23 13 ZW 1015,4 20 0 -
19.11.2019 18:00:00 8,6 2,5 9 5 29 15 ZW 1014,8 20 1 0,0
19.11.2019 17:00:00 10,0 0,6 16 8 29 16 W 1014,6 20 43 0,0
19.11.2019 16:00:00 10,3 1,9 11 6 - - ZW 1014,9 20 47 0,0
19.11.2019 15:00:00 9,7 1,3 14 7 - - OZO 1015,5 20 30 0,0
19.11.2019 14:00:00 10,5 1,5 - - - - - 1015,9 20 59 0,0
19.11.2019 13:00:00 9,5 2,1 - - - - - 1017,2 20 60 -
19.11.2019 12:00:00 7,0 2,9 5 3 17 9 ONO 1018,9 20 60 0,0
19.11.2019 11:00:00 4,3 1,1 2 1 14 8 O 1019,9 20 60 0,0
19.11.2019 10:00:00 1,8 -0,7 4 2 10 6 ZW 1020,6 20 60 0,0
19.11.2019 09:00:00 -0,3 -2,0 6 3 13 7 ZW 1020,9 20 15 0,0
19.11.2019 08:00:00 -0,9 -2,7 3 2 12 7 WZW 1020,7 20 0 0,0
19.11.2019 07:00:00 -0,7 -2,5 1 1 14 8 ZZW 1020,3 20 0 -
19.11.2019 06:00:00 -0,5 -2,5 3 1 9 5 ZW 1020,0 20 0 0,0
19.11.2019 05:00:00 -0,1 -2,0 6 3 13 7 ZW 1020,1 20 0 0,0
19.11.2019 04:00:00 0,8 -1,4 7 4 11 6 ZW 1020,0 20 0 0,0
19.11.2019 03:00:00 0,6 -1,4 8 4 11 6 ZW 1020,4 20 0 0,0
19.11.2019 02:00:00 1,0 -1,4 5 3 12 6 ZW 1020,2 20 0 0,0
19.11.2019 01:00:00 1,6 -1,2 8 4 16 8 W 1020,3 20 0 -
19.11.2019 00:00:00 1,9 -1,0 9 5 14 8 WNW 1020,4 20 0 0,0
18.11.2019 23:00:00 2,5 -0,5 9 5 14 8 W 1020,2 20 0 0,0
18.11.2019 22:00:00 2,8 -0,3 8 4 17 9 W 1019,7 20 0 0,0
18.11.2019 21:00:00 3,8 0,6 11 6 17 9 WNW 1018,8 20 0 0,0
18.11.2019 20:00:00 5,2 1,3 9 5 14 8 WNW 1017,8 20 0 0,0
18.11.2019 19:00:00 7,0 2,1 9 5 25 13 NW 1016,8 20 0 -
18.11.2019 18:00:00 8,9 2,1 14 7 30 16 NW 1015,6 20 40 0,0
18.11.2019 17:00:00 9,7 2,1 19 10 36 20 NW 1014,9 20 56 0,0
18.11.2019 16:00:00 10,0 3,0 19 10 37 20 NW 1014,2 20 54 0,0
18.11.2019 15:00:00 9,8 1,7 20 11 34 19 NW 1014,2 20 58 0,0
18.11.2019 14:00:00 9,4 1,7 18 10 29 16 NNW 1014,4 20 60 0,0
18.11.2019 13:00:00 8,5 1,9 16 9 36 20 NNW 1015,0 20 60 -
18.11.2019 12:00:00 7,9 1,9 18 10 31 17 NNW 1015,0 20 60 0,0
18.11.2019 11:00:00 6,4 3,0 18 10 30 16 NW 1015,1 20 60 0,0
18.11.2019 10:00:00 4,3 2,1 19 10 29 16 NW 1015,1 20 60 0,0
18.11.2019 09:00:00 2,2 0,2 14 8 21 11 W 1014,7 20 18 0,0
18.11.2019 08:00:00 2,3 0,4 12 7 19 11 W 1013,9 20 0 0,0
18.11.2019 07:00:00 2,0 0,0 11 6 20 11 W 1013,3 20 0 -
18.11.2019 06:00:00 2,9 0,6 11 6 21 11 NW 1012,6 20 0 0,0
18.11.2019 05:00:00 3,0 0,6 16 8 24 13 WNW 1012,3 20 0 0,0
18.11.2019 04:00:00 3,8 1,3 13 7 27 14 NNW 1012,0 20 0 0,0
18.11.2019 03:00:00 4,6 2,3 12 6 27 15 NW 1011,3 20 0 0,0
18.11.2019 02:00:00 5,3 3,6 13 7 25 14 WNW 1011,0 20 0 0,0
18.11.2019 01:00:00 5,9 4,5 11 6 24 13 W 1011,0 20 0 -
18.11.2019 00:00:00 6,5 5,1 6 4 20 11 ZW 1010,7 20 0 0,2
17.11.2019 23:00:00 6,4 5,0 8 4 - - NO 1010,6 2,6 0 1,6
17.11.2019 22:00:00 7,5 5,9 16 9 32 17 ZW 1010,1 20 0 1,8
17.11.2019 21:00:00 7,5 5,8 18 10 32 18 WZW 1010,6 8 0 1,2
17.11.2019 20:00:00 7,3 5,6 17 9 33 18 WZW 1011,1 15 0 1,2
17.11.2019 19:00:00 7,2 5,1 21 11 39 21 WZW 1011,6 20 0 -
17.11.2019 18:00:00 7,2 4,6 14 8 41 22 WZW 1012,1 20 25 0,0
17.11.2019 17:00:00 7,9 4,5 19 10 39 21 WZW 1012,0 20 60 0,0
17.11.2019 16:00:00 7,5 4,5 18 10 45 24 WZW 1012,6 20 5 0,0
17.11.2019 15:00:00 7,0 4,3 19 11 44 24 ZW 1013,5 20 0 0,0
17.11.2019 14:00:00 7,3 3,4 17 9 36 19 WZW 1014,4 20 0 0,0
17.11.2019 13:00:00 7,6 3,2 19 10 42 23 WZW 1015,2 20 39 -
17.11.2019 12:00:00 6,3 2,1 18 10 32 18 WZW 1016,4 20 20 0,0
17.11.2019 11:00:00 6,1 1,1 23 12 36 19 WZW 1016,7 20 48 0,0
17.11.2019 10:00:00 4,2 0,2 9 5 - - ZZW 1017,0 20 39 0,0
17.11.2019 09:00:00 1,4 -1,4 8 5 16 9 ZW 1017,9 20 3 0,0
17.11.2019 08:00:00 0,2 -2,2 10 5 14 7 ZW 1018,4 20 0 0,0
17.11.2019 07:00:00 -0,2 -2,7 7 4 11 6 WZW 1018,3 20 0 -
17.11.2019 06:00:00 0,1 -2,7 8 4 11 6 ZW 1018,2 20 0 0,0
17.11.2019 05:00:00 0,0 -2,7 10 5 12 7 ZW 1018,5 20 0 0,0
17.11.2019 04:00:00 -0,2 -3,3 4 2 9 5 WZW 1018,8 20 0 0,0
17.11.2019 03:00:00 0,8 -2,5 5 3 11 6 ZZW 1018,3 20 0 0,0
17.11.2019 02:00:00 1,4 -2,5 6 3 10 6 WZW 1018,7 20 0 0,0
17.11.2019 01:00:00 1,3 -2,2 5 3 18 10 ZZW 1018,8 20 0 -
17.11.2019 00:00:00 1,2 -2,5 4 2 14 8 NNW 1019,1 20 0 0,0
16.11.2019 23:00:00 2,2 -1,7 6 3 16 9 ZW 1018,4 20 0 0,0
16.11.2019 22:00:00 2,4 -1,7 8 4 15 8 ZW 1018,4 20 0 0,0
16.11.2019 21:00:00 3,7 -1,7 9 5 18 10 ZW 1017,8 20 0 0,0
16.11.2019 20:00:00 4,2 -2,5 8 4 17 9 WZW 1017,4 20 0 0,0
16.11.2019 19:00:00 5,6 -2,2 9 5 13 7 WNW 1016,5 20 0 -
16.11.2019 18:00:00 8,2 -1,7 5 3 - - NNW 1015,3 20 48 0,0
16.11.2019 17:00:00 9,2 -4,2 17 9 31 17 NW 1014,7 20 60 0,0
16.11.2019 16:00:00 9,9 -2,5 14 8 29 15 NW 1014,0 20 60 0,0
16.11.2019 15:00:00 9,3 -1,4 14 8 28 15 WNW 1014,1 20 60 0,0
16.11.2019 14:00:00 8,8 -1,0 16 9 31 17 WNW 1014,5 20 60 0,0
16.11.2019 13:00:00 7,9 -1,0 16 8 29 16 WNW 1015,0 20 60 -
16.11.2019 12:00:00 6,5 -0,5 15 8 29 16 NW 1015,8 20 60 0,0

tt = temperatuur
td = dauwpunt
ff = windsnelheid
fx = windstoten
dd = windrichting
ppp = luchtdruk
vv = zicht
sd = Zonneschijnduur
rr = neerslag

Weerstations in de omgeving